Wind_Speed
27 30 32 32 34 36 39 42 47 47 47 42 42 43 42 41 39 38 43 46 47 45 39 38 33 31 30 31 30 29 29 29 29 30 29 31 33 34 33 31 31 33 34
24 24 25 26 31 34 36 38 39 41 43 43 41 43 43 39 38 35 35 42 44 47 39 40 36 35 32 32 32 31 31 30 30 32 34 37 36 35 34 35 35 35 35
25 26 24 26 25 27 31 34 37 41 43 44 42 40 41 39 36 33 33 35 43 47 47 37 43 35 34 36 32 33 33 32 31 31 34 38 42 42 40 40 41 41 40
25 22 27 28 31 32 30 29 30 31 33 34 40 38 38 38 34 32 31 32 40 45 39 39 39 38 32 29 36 34 35 35 33 34 36 39 43 46 51 47 45 45 45
22 25 31 34 36 33 31 25 24 22 23 22 29 31 30 31 33 32 30 34 38 43 37 38 42 33 31 35 34 35 36 35 37 38 40 43 44 45 48 51 48 44 38
24 25 30 30 34 34 33 27 22 19 15 14 19 25 28 22 25 26 30 33 33 37 34 31 34 35 35 29 35 33 33 35 38 41 43 45 44 43 40 41 39 38 39
24 26 30 31 34 34 31 29 23 20 14 11 9 7 10 15 18 23 26 29 31 34 24 34 30 29 31 37 35 33 35 40 43 44 46 44 40 38 38 34 40 40 36
25 26 28 29 31 32 31 29 22 19 14 9 6 6 9 10 13 17 24 27 31 33 33 26 25 26 30 37 33 35 36 44 44 43 42 38 37 37 38 35 38 45 47
23 25 26 27 27 27 29 24 24 19 14 9 6 4 2 5 8 14 19 23 24 28 33 29 20 21 19 26 31 35 41 40 39 40 36 37 37 37 36 48 41 36 35
21 23 23 24 25 25 25 27 23 20 15 11 8 3 3 5 7 11 14 21 21 25 17 16 17 22 25 29 34 39 39 38 38 38 40 41 34 28 35 29 32 31 31
21 20 21 22 22 21 22 21 21 20 15 8 6 5 1 2 7 11 13 17 20 21 23 24 26 29 31 33 35 37 34 36 39 35 33 33 31 31 34 34 31 31 30
21 21 20 21 22 20 18 18 17 17 19 9 7 4 1 2 8 11 13 16 20 22 24 25 27 29 31 32 30 27 28 32 38 40 31 32 32 35 35 35 36 39 40
20 20 19 18 19 19 17 15 15 15 14 12 8 7 4 1 3 5 12 16 18 20 20 21 23 23 20 20 23 26 29 30 30 26 33 37 37 37 38 40 42 43 45
20 21 18 17 17 18 16 14 12 10 10 10 9 8 6 4 3 5 5 8 10 11 13 15 17 19 21 24 26 28 29 29 27 28 28 31 34 34 36 38 40 42 44
19 20 19 18 16 17 17 16 13 12 9 7 6 6 7 8 8 8 9 11 12 13 14 15 17 19 20 22 23 23 24 25 26 27 28 30 31 32 35 36 36 38 40
20 19 19 18 17 16 16 17 16 14 12 10 8 7 7 7 8 9 10 11 12 13 15 16 17 17 18 19 20 21 23 24 25 26 28 30 31 33 34 36 36 37 38
18 18 17 17 18 17 17 16 15 15 14 13 12 11 10 9 9 10 11 12 13 15 16 16 18 19 20 21 22 23 23 24 25 27 29 32 36 39 40 42 43 43 43
22 20 19 18 19 19 18 17 16 15 14 14 13 13 13 13 13 14 14 15 15 16 17 17 18 19 20 21 22 22 22 24 28 31 34 36 38 40 43 45 45 44 41
31 29 24 21 21 21 21 19 18 17 17 16 16 16 15 14 14 14 14 15 16 17 18 19 20 21 23 23 24 24 27 30 32 35 38 41 42 42 43 47 47 47 44
29 25 23 22 22 22 24 22 21 21 20 19 19 18 18 18 18 18 18 18 19 20 20 21 22 24 25 26 29 32 35 37 38 39 42 42 44 44 43 44 45 47 44
27 22 21 22 23 25 25 23 23 21 24 23 23 22 21 22 21 21 21 21 22 23 24 25 26 27 28 30 32 36 39 43 43 41 38 36 36 38 40 42 43 45 45
27 25 23 23 24 25 25 25 24 27 25 25 25 25 24 24 23 24 24 24 24 25 25 25 27 28 30 33 36 38 41 42 43 41 39 38 37 37 37 38 39 39 40
30 29 26 23 23 24 25 25 26 30 28 28 27 27 26 26 25 25 26 26 26 25 25 24 25 28 32 35 38 39 39 39 38 38 39 39 37 35 34 33 33 34 34
33 33 33 31 29 27 28 26 29 30 30 30 29 28 27 26 27 26 26 26 26 25 24 24 26 29 32 36 38 37 35 33 34 35 36 38 38 36 34 32 31 31 31
36 33 30 30 30 31 30 28 29 30 30 31 30 28 27 26 27 26 26 25 25 24 24 26 28 30 34 36 35 34 32 33 34 36 36 35 34 32 30 28 29 28 27
34 32 31 31 29 31 32 30 29 30 31 31 30 28 27 26 26 26 25 25 25 25 27 28 31 34 36 33 31 31 33 34 35 35 35 34 34 33 32 30 27 26 25
Wind_Direction
312 311 309 304 299 295 289 282 275 272 271 269 264 260 257 258 248 246 244 241 239 239 241 242 239 244 245 250 249 252 259 266 266 268 274 275 277 278 280 280 279 276 275
331 324 317 311 305 302 297 291 285 275 265 261 262 257 252 250 249 246 242 241 235 233 236 237 240 234 242 251 248 252 260 264 267 274 280 279 275 276 277 276 277 279 278
339 334 333 327 319 314 307 297 288 279 269 261 258 253 249 249 246 243 245 239 234 232 236 241 234 234 239 241 249 253 259 262 264 274 280 283 283 284 276 272 272 276 280
342 343 346 343 346 346 333 324 311 297 276 268 254 243 243 246 248 244 240 236 234 228 232 239 242 230 232 234 241 251 257 262 266 270 277 281 286 287 286 282 278 278 280
347 349 350 353 348 341 348 345 340 324 302 285 251 242 245 249 247 245 240 230 230 228 231 232 236 233 232 234 246 252 255 262 270 276 280 283 283 283 281 281 281 280 278
351 348 345 350 352 351 352 349 349 344 330 298 273 252 242 235 243 236 231 223 226 227 234 239 242 252 239 236 244 250 256 261 270 277 281 282 283 286 284 280 281 282 276
345 345 345 357 356 352 350 353 350 349 349 337 310 283 269 245 245 229 220 217 215 217 236 218 248 245 247 249 250 252 260 266 272 277 279 280 275 278 287 279 280 283 281
342 345 347 357 359 3 357 353 352 347 356 3 360 287 247 230 231 230 217 214 213 218 240 257 261 260 242 241 248 261 266 268 274 280 281 276 276 273 272 285 272 278 274
343 342 346 355 358 359 5 356 359 349 337 344 347 11 169 208 210 216 220 218 213 224 239 236 243 266 274 263 264 273 271 277 280 278 272 274 281 280 276 273 275 262 278
342 340 345 351 355 357 0 8 5 357 4 353 346 300 232 203 198 210 216 216 223 239 256 260 263 266 271 280 278 274 276 275 277 273 271 271 270 272 261 272 261 266 274
334 337 344 347 351 355 357 1 10 15 12 5 5 344 341 210 188 192 207 225 236 244 252 259 265 273 277 279 276 278 278 277 277 273 274 261 274 273 274 277 272 268 272
325 334 340 341 345 351 351 352 1 8 23 17 41 36 23 197 200 204 223 235 244 252 258 267 271 273 275 276 272 271 277 282 268 256 263 264 270 270 270 274 275 273 276
322 325 332 335 336 342 349 350 350 357 8 24 24 44 72 91 157 234 246 253 261 266 268 269 271 272 273 269 271 271 273 280 279 267 267 272 274 276 277 276 275 276 277
317 318 322 324 326 328 335 342 343 344 351 357 1 7 11 341 302 271 262 260 262 264 259 262 265 265 267 270 274 276 277 278 278 281 278 278 280 281 281 281 281 280 280
312 306 311 314 315 318 322 327 333 338 337 335 336 334 331 325 315 302 289 280 276 274 272 267 265 265 264 266 269 272 276 280 283 286 289 290 287 284 282 280 279 279 277
315 310 306 304 303 305 309 316 325 327 329 327 321 314 310 309 305 301 297 295 293 292 291 292 291 290 288 288 289 290 292 293 293 291 291 292 293 294 293 290 288 285 284
312 305 292 290 293 295 299 306 311 316 319 321 320 317 312 304 297 293 291 290 290 290 290 291 292 293 293 291 290 289 289 291 294 295 297 297 297 296 295 293 292 291 289
296 300 291 283 283 284 288 292 297 303 306 307 309 310 310 309 309 306 304 299 297 295 294 292 291 291 293 294 296 297 297 298 299 300 300 299 298 298 295 292 289 287 286
302 286 280 279 275 279 281 284 290 294 298 300 302 301 299 299 298 298 300 302 304 302 301 302 303 304 303 301 297 295 296 298 299 301 302 303 302 300 295 292 290 287 285
306 299 277 271 275 275 276 280 283 287 289 291 291 292 296 298 300 303 307 307 306 304 304 303 304 304 303 300 299 300 301 302 304 307 307 307 305 303 300 296 293 291 289
300 291 291 284 273 270 271 273 275 280 279 283 285 288 292 295 298 300 302 304 306 307 306 306 308 308 308 307 307 307 307 307 307 309 308 305 301 298 298 298 297 296 294
299 298 292 288 285 281 274 270 272 271 276 278 282 287 289 292 297 300 301 303 305 306 307 307 307 308 310 310 311 312 312 312 312 313 312 311 307 304 301 299 298 297 296
295 291 291 291 287 286 285 279 273 273 275 279 283 286 288 292 293 294 297 299 301 302 302 303 306 309 312 313 314 313 312 312 313 313 312 311 310 309 306 302 299 299 297
293 290 284 282 287 286 279 278 273 274 274 276 279 281 284 287 289 292 295 297 298 298 297 300 306 311 313 313 312 311 310 311 312 311 308 307 308 310 309 307 305 302 299
290 288 288 287 282 280 279 275 270 269 269 269 273 277 279 283 288 291 293 294 294 294 297 303 308 311 314 314 313 312 313 314 312 312 313 314 313 312 311 311 308 305 301
289 282 287 289 283 277 273 273 273 271 268 268 271 273 276 282 286 288 291 293 293 293 299 304 310 312 315 313 313 313 313 313 313 313 314 315 315 316 316 314 310 307 302
Height
3089 3085 3081 3076 3072 3067 3062 3058 3054 3053 3052 3052 3052 3052 3054 3058 3060 3063 3068 3071 3076 3082 3086 3090 3093 3094 3098 3100 3103 3105 3106 3107 3108 3106 3107 3105 3105 3105 3105 3105 3105 3104 3105
3083 3080 3075 3070 3063 3057 3052 3046 3041 3037 3037 3038 3039 3039 3042 3046 3051 3053 3057 3062 3066 3071 3077 3081 3084 3088 3091 3094 3097 3098 3099 3101 3101 3099 3098 3096 3098 3099 3099 3097 3097 3096 3096
3080 3075 3069 3064 3058 3051 3044 3037 3031 3026 3024 3024 3025 3028 3031 3035 3041 3044 3049 3052 3057 3062 3067 3071 3077 3079 3083 3087 3089 3090 3092 3094 3095 3094 3092 3089 3086 3087 3089 3089 3088 3088 3087
3077 3072 3067 3061 3053 3045 3038 3029 3022 3016 3013 3012 3013 3018 3022 3027 3032 3036 3039 3043 3048 3054 3059 3063 3064 3069 3072 3076 3081 3083 3084 3085 3087 3087 3086 3084 3081 3078 3073 3076 3077 3077 3077
3074 3069 3063 3056 3049 3042 3034 3026 3019 3012 3008 3004 3005 3010 3015 3019 3023 3027 3031 3034 3038 3046 3051 3055 3058 3059 3062 3068 3073 3076 3077 3078 3078 3078 3078 3077 3074 3071 3066 3061 3063 3063 3065
3072 3067 3062 3056 3048 3039 3032 3024 3018 3013 3007 3004 3003 3004 3006 3011 3016 3020 3024 3028 3032 3040 3045 3049 3053 3054 3058 3063 3066 3068 3070 3071 3071 3070 3069 3067 3064 3061 3059 3054 3054 3052 3052
3071 3066 3061 3055 3048 3039 3031 3025 3020 3015 3009 3005 3003 3003 3005 3007 3013 3016 3019 3024 3029 3036 3031 3038 3046 3049 3054 3057 3058 3061 3062 3063 3063 3062 3059 3058 3056 3054 3051 3047 3045 3042 3044
3069 3065 3060 3053 3047 3040 3032 3025 3020 3016 3012 3008 3006 3005 3005 3007 3011 3015 3017 3021 3026 3032 3033 3031 3038 3044 3047 3049 3052 3053 3054 3054 3053 3051 3050 3048 3046 3046 3043 3040 3035 3035 3035
3068 3064 3059 3053 3047 3041 3034 3027 3021 3016 3012 3010 3008 3007 3006 3008 3010 3014 3016 3021 3024 3028 3031 3035 3038 3041 3041 3043 3043 3046 3046 3044 3043 3041 3040 3039 3037 3036 3035 3032 3030 3028 3024
3066 3063 3058 3053 3048 3042 3037 3030 3024 3018 3014 3011 3009 3008 3008 3009 3011 3013 3016 3019 3023 3025 3028 3030 3033 3034 3035 3036 3037 3038 3037 3035 3033 3031 3031 3031 3030 3028 3027 3024 3024 3020 3018
3065 3061 3056 3052 3047 3043 3038 3033 3028 3022 3017 3012 3011 3009 3009 3009 3011 3014 3017 3018 3022 3024 3026 3027 3027 3028 3029 3028 3029 3028 3027 3026 3025 3024 3023 3022 3020 3019 3018 3015 3014 3013 3012
3061 3058 3055 3051 3047 3044 3040 3035 3030 3025 3021 3016 3013 3010 3011 3011 3011 3012 3016 3018 3019 3020 3021 3021 3021 3022 3021 3021 3021 3019 3019 3018 3016 3016 3015 3014 3013 3012 3010 3008 3007 3005 3002
3058 3055 3052 3049 3046 3043 3040 3036 3032 3027 3023 3020 3017 3014 3013 3013 3012 3013 3013 3014 3015 3015 3016 3015 3015 3016 3015 3013 3013 3014 3013 3011 3009 3009 3008 3005 3003 3001 2999 2997 2996 2994 2991
3054 3051 3048 3046 3043 3040 3037 3034 3031 3027 3024 3022 3019 3017 3014 3014 3013 3012 3012 3012 3012 3012 3012 3011 3011 3010 3011 3010 3009 3007 3005 3003 3001 2999 2997 2996 2993 2991 2988 2986 2984 2981 2979
3050 3047 3044 3042 3040 3038 3035 3032 3030 3028 3025 3023 3020 3018 3016 3014 3013 3012 3011 3010 3009 3009 3008 3007 3006 3006 3005 3003 3002 3000 2998 2995 2994 2991 2988 2986 2983 2981 2978 2976 2974 2971 2968
3045 3043 3041 3038 3037 3035 3033 3031 3029 3027 3024 3022 3020 3018 3017 3015 3014 3012 3010 3009 3007 3006 3005 3004 3003 3001 3000 2998 2996 2994 2992 2989 2987 2985 2982 2978 2975 2971 2968 2964 2961 2959 2955
3041 3038 3035 3034 3032 3030 3029 3028 3026 3024 3022 3020 3018 3016 3014 3011 3010 3008 3006 3005 3004 3002 3001 2999 2998 2996 2995 2993 2990 2989 2986 2983 2980 2978 2975 2972 2967 2963 2959 2955 2951 2948 2944
3037 3034 3031 3029 3027 3026 3025 3023 3021 3019 3017 3016 3014 3012 3010 3009 3008 3006 3004 3002 3000 2999 2997 2995 2993 2991 2989 2986 2984 2982 2979 2977 2974 2970 2967 2963 2959 2954 2948 2944 2940 2936 2934
3029 3027 3025 3024 3022 3021 3019 3018 3016 3015 3013 3012 3010 3009 3007 3006 3004 3002 3000 2999 2997 2994 2992 2990 2988 2985 2983 2980 2978 2976 2973 2971 2968 2963 2958 2952 2947 2943 2937 2931 2926 2923 2922
3022 3019 3017 3017 3016 3015 3014 3013 3011 3010 3008 3006 3005 3003 3002 3000 2999 2997 2996 2994 2991 2989 2986 2984 2982 2979 2976 2973 2970 2967 2963 2960 2957 2953 2946 2940 2933 2927 2922 2918 2912 2908 2905
3017 3015 3013 3012 3009 3007 3007 3006 3005 3004 3002 3001 2999 2998 2996 2995 2993 2991 2989 2987 2985 2982 2980 2977 2975 2972 2969 2966 2962 2957 2952 2946 2942 2938 2935 2931 2924 2918 2913 2906 2901 2897 2892
3011 3008 3006 3004 3002 3001 2999 2998 2998 2995 2995 2993 2993 2992 2990 2988 2987 2985 2983 2980 2979 2976 2974 2971 2967 2964 2960 2956 2952 2947 2941 2934 2929 2925 2921 2916 2913 2908 2902 2897 2892 2886 2883
3004 3002 3000 2998 2995 2993 2992 2991 2990 2988 2988 2986 2986 2984 2982 2981 2979 2977 2975 2973 2972 2970 2967 2964 2961 2957 2953 2948 2943 2938 2932 2927 2921 2916 2911 2905 2901 2897 2893 2888 2882 2878 2874
2996 2993 2992 2991 2990 2987 2984 2983 2981 2980 2979 2978 2977 2976 2975 2973 2971 2969 2968 2966 2964 2962 2960 2957 2955 2951 2946 2941 2935 2929 2924 2920 2915 2910 2905 2898 2893 2888 2883 2879 2874 2869 2865
2987 2984 2982 2981 2980 2978 2976 2975 2972 2971 2970 2969 2968 2968 2966 2964 2963 2962 2960 2958 2956 2954 2952 2950 2947 2943 2938 2932 2926 2920 2916 2911 2907 2901 2895 2889 2884 2879 2875 2871 2867 2862 2858
2977 2975 2973 2971 2970 2967 2966 2965 2964 2962 2962 2961 2960 2960 2959 2957 2956 2954 2952 2951 2948 2946 2943 2941 2937 2933 2929 2923 2918 2913 2908 2903 2897 2892 2887 2882 2876 2871 2866 2862 2859 2855 2851